{"data":{"norad_id":67345,"intl_designator":"2026-003M","name":"STARLINK-35676","alt_names":[],"object_type":"PAYLOAD","status":"ACTIVE","operator":null,"country":"US","launch_date":"2026-01-09","launch_site_code":"AFETR","launch_vehicle":null,"mission":null,"orbit_class":"UNKNOWN","rcs_meters":null,"size_class":null,"mass_kg":null,"dimensions":null,"purposes":["comms"],"wikipedia_slug":null,"has_3d_model":false,"image_url":null,"decayed_at":null,"tle_current":{"epoch":"2026-05-24T17:13:54.297120Z","epoch_age_seconds":102630,"freshness":"FRESH","line1":"1 67345U 26003M   26144.71798955  .00011211  00000+0  41636-3 0  9992","line2":"2 67345  43.0001 157.5075 0001718 268.8888  91.1767 15.27575281 20455","mean_motion":15.27575281,"eccentricity":0.0001718,"inclination_deg":43.0001,"raan_deg":157.5075,"arg_perigee_deg":268.8888,"mean_anomaly_deg":91.1767,"bstar":0.00041636,"rev_number":2045,"period_min":94.267039923383,"perigee_km":481.88447226077,"apogee_km":484.24198065859,"semimajor_km":6861.2002264597,"source":"CELESTRAK","updated_at":"2026-05-25T13:38:21.524329Z"}}}